Capitol Logistics 2535


KOAK
Metropolitan Oakland International Airport
Oakland, California, US
KMEM
Memphis International Airport
Memphis, Tennessee, US

Activity Log

Date Flight Route Aircraft Duration
11/26/2019 CPX2535 HUSSH2 SYRAH Q128 VEGUC RZC DAWGG2 B763 3h 37m
11/25/2019 CPX2535 HUSSH2 SYRAH Q128 JSICA MLF DVC LBL RZC BRBBQ3 B744 3h 25m
11/21/2019 CPX2535 N0485F350 KATFH2 NTELL Q158 BIKKR Q15 CHILY J6 DRK IRW FSM BRBBQ3 B744 3h 33m
11/19/2019 CPX2535 HUSSH2 SYRAH Q128 JSICA MLF DVC LBL RZC BRBBQ3 B744 3h 16m
11/19/2019 CPX2535 HUSSH2 SYRAH Q128 VLUST RZC BRBBQ3 B763 3h 35m

Route Details

Aircraft Information
Primary: Boeing 747-400BCF
Backup: Boeing 767-300BDSF
Date Restrictions
Between:Nov 16, 2019
Dec 31, 2019
Route Data
Distance: 1561nm
Sched. Duration: 3h 35m
Avg. Duration: 3h 29m (-5m)
Times Flown: 5
Recm'd Route: HUSSH2 SYRAH Q128 JSICA MLF DVC LBL RZC BRBBQ3
Planned Altitude: 35,000ft
Origin Wx: KOAK 290853Z 30005KT 10SM OVC009 16/13 A2991 RMK AO2 SLP127 T01560128 56006
Dest. Wx: KMEM 290905Z 22003KT 10SM SCT009 18/17 A2997 RMK AO2 T01830172 $
Notes: SEASONAL FLIGHT | FEDEX SURGE OPS CONTRACT

Financial History
Total Freight: 857,545lbs
Average Load: 171,509lbs/flt
Fuel Used: 295,732lbs
Avg. Fuel Used: 59,146lbs/flt
Fuel Expense: $275,031
Avg. Fuel Expense: $55,006
Avg. Fuel Cost: $0.93/lbs
Total Gross Income: $1,620,760
Pilot Pay: $1,085
Total Expenses: $175,302
Total Revenue: $1,165,866
Average Revenue: $324,152.01